Overview Statistics Trail Chart Weather Telemetry Raw packets
 

This is the latest recevied weather packets stored in our database for station/object N4BBA. If no packets are shown the sender has not sent any weather packets the latest 10 day(s).

<< 21 22 23 24 25 26 27 >>
Time Temp. Humidity Pressure Rain* Wind** Luminosity Snow
1777588836 22.22° C 59% 1008.3 hPa 0 mm - 59 W/m² -
1777588532 22.78° C 57% 1008.5 hPa 0 mm - 136 W/m² -
1777588228 22.78° C 55% 1008.6 hPa 0 mm - 154 W/m² -
1777587923 22.78° C 54% 1008.3 hPa 0 mm - 145 W/m² -
1777587620 22.78° C 53% 1008.5 hPa 0 mm - 137 W/m² -
1777587314 23.33° C 55% 1008.5 hPa 0 mm - 179 W/m² -
1777587010 22.78° C 53% 1008.2 hPa 0 mm - 213 W/m² -
1777586705 22.78° C 56% 1008.4 hPa 0 mm - 232 W/m² -
1777586402 22.78° C 55% 1008.5 hPa 0 mm - 244 W/m² -
1777586101 22.78° C 56% 1008.4 hPa 0 mm - 261 W/m² -
1777585799 23.89° C 53% 1008.5 hPa 0 mm - 273 W/m² -
1777585499 24.44° C 52% 1008.2 hPa 0 mm - 290 W/m² -
1777585195 22.78° C 53% 1008.4 hPa 0 mm - 292 W/m² -
1777584891 22.22° C 57% 1008.5 hPa 0 mm - 314 W/m² -
1777584589 22.22° C 55% 1008 hPa 0 mm - 293 W/m² -
1777584285 22.22° C 54% 1008.2 hPa 0 mm - 295 W/m² -
1777583980 22.78° C 54% 1008.2 hPa 0 mm - 348 W/m² -
1777583675 23.33° C 54% 1008.4 hPa 0 mm - 365 W/m² -
1777583375 22.78° C 55% 1008.5 hPa 0 mm - 431 W/m² -
1777583074 21.67° C 58% 1008.5 hPa 0 mm - 506 W/m² -
1777582771 21.67° C 58% 1008.6 hPa 0 mm - 329 W/m² -
1777582466 21.67° C 57% 1008.5 hPa 0 mm - 203 W/m² -
1777582162 21.67° C 56% 1008.4 hPa 0 mm - 293 W/m² -
1777581861 21.67° C 56% 1008.7 hPa 0 mm - 437 W/m² -
1777581560 21.67° C 57% 1008.6 hPa 0 mm - 279 W/m² -

* Rain latest hour (hover to see other rain measurements)
** Current wind speed in m/s (hover to see current wind gust speed)